W0WC Weather Reports


Display with metric or nautical units.
time (UTC)temp
F
wind
direction
speed
MPH
gust
MPH
rain 1hr
in
rain 24hr
in
rain mn
in
humidity
%
barometer
mb
20260903142859 86 157 6.0 9.0 0.00 0.00 0.00 57 1016.4
20260903142355 86 208 5.0 6.0 0.00 0.00 0.00 58 1016.5
20260903141851 86 178 5.0 8.0 0.00 0.00 0.00 58 1016.7
20260903141346 85 253 4.0 6.0 0.00 0.00 0.00 58 1016.5
20260903140841 85 142 7.0 9.0 0.00 0.00 0.00 59 1016.5
20260903140336 85 209 6.0 8.0 0.00 0.00 0.00 59 1016.5
20260903135832 84 238 4.0 4.0 0.00 0.00 0.00 60 1016.6
20260903135328 84 162 3.0 3.0 0.00 0.00 0.00 61 1016.6
20260903134826 84 325 4.0 7.0 0.00 0.00 0.00 61 1016.5
20260903134322 84 183 7.0 9.0 0.00 0.00 0.00 61 1016.5
20260903133820 83 198 7.0 8.0 0.00 0.00 0.00 62 1016.8
20260903133316 83 169 3.0 4.0 0.00 0.00 0.00 63 1016.8
20260903132816 82 213 4.0 6.0 0.00 0.00 0.00 64 1016.5
20260903132312 82 77 4.0 6.0 0.00 0.00 0.00 65 1016.6
20260903131806 82 201 3.0 4.0 0.00 0.00 0.00 65 1016.5
20260903131306 82 201 3.0 4.0 0.00 0.00 0.00 65 1016.4
20260903130800 81 60 2.0 3.0 0.00 0.00 0.00 66 1016.4
20260903130255 81 184 3.0 6.0 0.00 0.00 0.00 67 1016.7
20260903125753 81 194 5.0 6.0 0.00 0.00 0.00 67 1016.6
20260903125249 80 150 7.0 9.0 0.00 0.00 0.00 67 1016.7
20260903124748 80 61 4.0 3.0 0.00 0.00 0.00 67 1016.3
20260903124244 80 166 4.0 7.0 0.00 0.00 0.00 67 1016.4
20260903123742 80 62 2.0 2.0 0.00 0.00 0.00 68 1016.4
20260903123242 80 176 5.0 8.0 0.00 0.00 0.00 68 1016.4
20260903122741 80 248 2.0 3.0 0.00 0.00 0.00 68 1016.4
20260903122236 79 62 1.0 2.0 0.00 0.00 0.00 68 1016.2
20260903121734 79 71 2.0 3.0 0.00 0.00 0.00 69 1016.1
20260903121230 79 179 4.0 4.0 0.00 0.00 0.00 69 1016.2
20260903120730 79 54 2.0 2.0 0.00 0.00 0.00 69 1016.2
20260903120224 79 184 4.0 6.0 0.00 0.00 0.00 69 1016.1
20260903115723 79 148 2.0 3.0 0.00 0.00 0.00 68 1016.1
20260903115219 80 185 2.0 2.0 0.00 0.00 0.00 68 1016.0
20260903114713 80 94 2.0 3.0 0.00 0.00 0.00 68 1016.0
20260903114209 80 207 5.0 6.0 0.00 0.00 0.00 68 1015.9
20260903113708 80 210 2.0 3.0 0.00 0.00 0.00 67 1016.0
20260903113205 80 188 3.0 3.0 0.00 0.00 0.00 67 1016.1
20260903112701 80 92 3.0 4.0 0.00 0.00 0.00 66 1016.2
20260903112156 80 37 2.0 3.0 0.00 0.00 0.00 66 1015.9
20260903111654 80 165 5.0 7.0 0.00 0.00 0.00 66 1016.0
20260903111150 80 97 2.0 2.0 0.00 0.00 0.00 66 1016.1
20260903110646 81 213 6.0 9.0 0.00 0.00 0.00 65 1016.0
20260903110142 81 160 2.0 2.0 0.00 0.00 0.00 65 1016.0
20260903105636 81 210 4.0 4.0 0.00 0.00 0.00 65 1016.0
20260903105131 80 200 5.0 7.0 0.00 0.00 0.00 65 1015.8
20260903104631 80 122 4.0 7.0 0.00 0.00 0.00 66 1015.8
20260903104126 80 172 4.0 7.0 0.00 0.00 0.00 65 1015.9
20260903103622 80 110 2.0 2.0 0.00 0.00 0.00 65 1015.9
20260903103118 81 195 3.0 4.0 0.00 0.00 0.00 65 1015.8
20260903102613 81 205 4.0 7.0 0.00 0.00 0.00 65 1015.9
20260903102113 81 47 3.0 3.0 0.00 0.00 0.00 65 1015.9
20260903101613 81 134 3.0 4.0 0.00 0.00 0.00 65 1015.7
20260903101108 81 133 2.0 3.0 0.00 0.00 0.00 65 1015.8
20260903100609 81 144 6.0 8.0 0.00 0.00 0.00 64 1015.8
20260903100108 81 174 3.0 3.0 0.00 0.00 0.00 64 1015.6
20260903095605 81 154 3.0 4.0 0.00 0.00 0.00 64 1015.7
20260903095105 81 39 2.0 4.0 0.00 0.00 0.00 64 1015.7
20260903094606 81 231 3.0 3.0 0.00 0.00 0.00 64 1015.7
20260903094101 81 197 6.0 8.0 0.00 0.00 0.00 63 1015.6
20260903093556 81 100 3.0 3.0 0.00 0.00 0.00 63 1015.7
20260903093052 82 192 4.0 6.0 0.00 0.00 0.00 63 1015.6
20260903092551 82 203 4.0 4.0 0.00 0.00 0.00 63 1015.8
20260903092045 82 185 5.0 7.0 0.00 0.00 0.00 62 1015.6
20260903091544 82 30 1.0 1.0 0.00 0.00 0.00 62 1015.7
20260903091038 82 178 2.0 3.0 0.00 0.00 0.00 62 1015.7
20260903090535 82 40 2.0 2.0 0.00 0.00 0.00 61 1015.6
20260903090033 82 171 3.0 3.0 0.00 0.00 0.00 61 1015.6
20260903085532 82 197 4.0 6.0 0.00 0.00 0.00 61 1015.6
20260903085028 83 13 1.0 2.0 0.00 0.00 0.00 60 1015.5
20260903084526 83 28 1.0 1.0 0.00 0.00 0.00 60 1015.6
20260903084020 83 194 2.0 3.0 0.00 0.00 0.00 60 1015.5
20260903083511 83 230 2.0 3.0 0.00 0.00 0.00 60 1015.5
20260903083010 83 181 5.0 7.0 0.00 0.00 0.00 59 1015.6
20260903082505 83 238 2.0 3.0 0.00 0.00 0.00 59 1015.5
20260903082000 83 164 2.0 2.0 0.00 0.00 0.00 59 1015.6
20260903081455 84 202 2.0 3.0 0.00 0.00 0.00 59 1015.5
20260903080951 84 186 6.0 9.0 0.00 0.00 0.00 58 1015.5
20260903080447 84 196 6.0 7.0 0.00 0.00 0.00 58 1015.3
20260903075943 84 1 2.0 4.0 0.00 0.00 0.00 58 1015.3
20260903075438 84 72 2.0 3.0 0.00 0.00 0.00 58 1015.3
20260903074933 84 197 3.0 4.0 0.00 0.00 0.00 57 1015.4
20260903074432 84 31 2.0 2.0 0.00 0.00 0.00 57 1015.4
20260903073927 84 90 4.0 6.0 0.00 0.00 0.00 57 1015.4
20260903073422 84 187 3.0 4.0 0.00 0.00 0.00 57 1015.3
20260903072918 85 49 1.0 1.0 0.00 0.00 0.00 56 1015.3
20260903072414 85 115 4.0 4.0 0.00 0.00 0.00 56 1015.3
20260903071911 85 128 3.0 3.0 0.00 0.00 0.00 56 1015.3
20260903071406 85 191 6.0 7.0 0.00 0.00 0.00 56 1015.3
20260903070902 85 222 2.0 3.0 0.00 0.00 0.00 56 1015.3
20260903070356 85 186 2.0 2.0 0.00 0.00 0.00 56 1015.2
20260903065851 85 221 3.0 3.0 0.00 0.00 0.00 56 1015.3
20260903065345 85 153 3.0 3.0 0.00 0.00 0.00 56 1015.3
20260903064844 85 241 2.0 2.0 0.00 0.00 0.00 56 1015.2
20260903064340 85 156 5.0 7.0 0.00 0.00 0.00 56 1015.2
20260903063836 85 60 2.0 2.0 0.00 0.00 0.00 56 1015.2
20260903063331 85 151 4.0 7.0 0.00 0.00 0.00 56 1015.3
20260903062827 85 164 3.0 6.0 0.00 0.00 0.00 56 1015.2
20260903062326 85 192 3.0 4.0 0.00 0.00 0.00 56 1015.3
20260903061823 85 274 1.0 1.0 0.00 0.00 0.00 56 1015.3
20260903061321 85 139 1.0 2.0 0.00 0.00 0.00 55 1015.2
20260903060818 85 116 3.0 4.0 0.00 0.00 0.00 55 1015.2
20260903060317 86 80 3.0 3.0 0.00 0.00 0.00 55 1015.2
20260903055815 86 101 4.0 6.0 0.00 0.00 0.00 55 1015.1
20260903055313 86 179 3.0 3.0 0.00 0.00 0.00 55 1015.2
20260903054809 85 220 4.0 4.0 0.00 0.00 0.00 55 1015.2
20260903054308 85 185 3.0 4.0 0.00 0.00 0.00 55 1015.2
20260903053805 85 181 3.0 6.0 0.00 0.00 0.00 55 1015.2
20260903053300 85 79 3.0 4.0 0.00 0.00 0.00 55 1015.1
20260903052755 86 34 1.0 2.0 0.00 0.00 0.00 54 1015.2
20260903052251 86 130 4.0 4.0 0.00 0.00 0.00 54 1015.1
20260903051746 86 108 2.0 3.0 0.00 0.00 0.00 53 1015.1
20260903051242 86 157 3.0 4.0 0.00 0.00 0.00 53 1015.1
20260903050737 86 188 6.0 7.0 0.00 0.00 0.00 53 1015.0
20260903050236 86 144 2.0 3.0 0.00 0.00 0.00 53 1015.1
20260903045731 86 24 1.0 2.0 0.00 0.00 0.00 52 1015.0
20260903045227 86 175 4.0 4.0 0.00 0.00 0.00 52 1015.0
20260903044723 86 148 2.0 2.0 0.00 0.00 0.00 52 1015.0
20260903044218 87 35 2.0 3.0 0.00 0.00 0.00 51 1014.9
20260903043716 87 170 4.0 4.0 0.00 0.00 0.00 51 1015.1
20260903043215 87 54 1.0 1.0 0.00 0.00 0.00 50 1015.1
20260903042714 87 178 4.0 6.0 0.00 0.00 0.00 50 1015.0
20260903042209 87 38 3.0 4.0 0.00 0.00 0.00 49 1014.7
20260903041706 87 74 4.0 4.0 0.00 0.00 0.00 49 1014.9
20260903041201 88 188 3.0 4.0 0.00 0.00 0.00 48 1014.9
20260903040700 88 114 3.0 3.0 0.00 0.00 0.00 48 1014.9
20260903040156 88 215 3.0 3.0 0.00 0.00 0.00 48 1014.8
20260903035651 88 48 1.0 1.0 0.00 0.00 0.00 47 1015.1
20260903035142 88 346 2.0 2.0 0.00 0.00 0.00 47 1015.1
20260903034642 89 138 3.0 3.0 0.00 0.00 0.00 46 1014.9
20260903034136 89 158 1.0 1.0 0.00 0.00 0.00 45 1014.9
20260903033632 89 236 1.0 2.0 0.00 0.00 0.00 45 1014.9
20260903033132 90 174 3.0 3.0 0.00 0.00 0.00 44 1014.8
20260903032627 90 158 3.0 3.0 0.00 0.00 0.00 44 1014.8
20260903032123 90 182 2.0 3.0 0.00 0.00 0.00 44 1014.8
20260903031618 90 28 2.0 3.0 0.00 0.00 0.00 44 1014.9
20260903031113 90 117 4.0 4.0 0.00 0.00 0.00 44 1014.8
20260903030609 90 47 3.0 3.0 0.00 0.00 0.00 44 1014.8
20260903030104 90 126 2.0 3.0 0.00 0.00 0.00 44 1014.6
20260903025559 90 66 1.0 2.0 0.00 0.00 0.00 44 1014.7
20260903025055 90 147 3.0 4.0 0.00 0.00 0.00 43 1014.5
20260903024555 91 61 1.0 2.0 0.00 0.00 0.00 43 1014.5
20260903024049 91 54 2.0 2.0 0.00 0.00 0.00 43 1014.6
20260903023544 91 103 4.0 4.0 0.00 0.00 0.00 42 1014.4
20260903023040 91 98 2.0 3.0 0.00 0.00 0.00 42 1014.5
20260903022539 91 43 0.0 0.0 0.00 0.00 0.00 42 1014.6
20260903022038 91 354 0.0 1.0 0.00 0.00 0.00 42 1014.6
20260903021533 92 172 1.0 2.0 0.00 0.00 0.00 42 1014.2
20260903021027 92 157 2.0 2.0 0.00 0.00 0.00 41 1014.4
20260903020524 92 30 0.0 1.0 0.00 0.00 0.00 42 1014.4
20260903020023 92 4 0.0 0.0 0.00 0.00 0.00 41 1014.0
20260903015520 92 15 0.0 0.0 0.00 0.00 0.00 41 1013.9
20260903015015 92 24 1.0 1.0 0.00 0.00 0.00 40 1014.0
20260903014514 93 72 2.0 2.0 0.00 0.00 0.00 40 1013.8
20260903014009 93 34 1.0 1.0 0.00 0.00 0.00 40 1013.8
20260903013508 93 26 0.0 1.0 0.00 0.00 0.00 40 1013.6
20260903013008 93 55 1.0 1.0 0.00 0.00 0.00 40 1013.6
20260903012508 93 21 0.0 0.0 0.00 0.00 0.00 40 1013.6
20260903012006 93 30 0.0 0.0 0.00 0.00 0.00 39 1013.7
20260903011501 93 32 0.0 1.0 0.00 0.00 0.00 39 1013.5
20260903010957 94 23 0.0 0.0 0.00 0.00 0.00 38 1013.4
20260903010457 94 55 0.0 0.0 0.00 0.00 0.00 38 1013.4
20260903005954 94 36 2.0 2.0 0.00 0.00 0.00 38 1013.2
20260903005450 95 62 1.0 2.0 0.00 0.00 0.00 37 1013.5
20260903004946 95 328 1.0 1.0 0.00 0.00 0.00 37 1013.3
20260903004440 95 342 0.0 0.0 0.00 0.00 0.00 36 1013.4
20260903003936 96 9 0.0 0.0 0.00 0.00 0.00 36 1013.6
20260903003436 96 12 1.0 2.0 0.00 0.00 0.00 36 1013.5
20260903002932 96 321 1.0 2.0 0.00 0.00 0.00 35 1013.4
20260903002426 97 191 2.0 2.0 0.00 0.00 0.00 35 1013.3
20260903001921 97 75 2.0 2.0 0.00 0.00 0.00 35 1013.5
20260903001421 97 63 2.0 2.0 0.00 0.00 0.00 34 1013.4
20260903000920 97 214 3.0 4.0 0.00 0.00 0.00 34 1013.4
20260903000417 98 27 2.0 2.0 0.00 0.00 0.00 34 1013.3
20260902235914 98 126 4.0 6.0 0.00 0.00 0.00 33 1013.4
20260902235409 98 224 5.0 7.0 0.00 0.00 0.00 33 1013.5
20260902234909 98 192 2.0 3.0 0.00 0.00 0.00 33 1013.5
20260902234404 98 97 2.0 3.0 0.00 0.00 0.00 33 1013.5
20260902233902 98 185 3.0 4.0 0.00 0.00 0.00 33 1013.5
20260902233357 99 225 3.0 4.0 0.00 0.00 0.00 33 1013.4
20260902232855 99 159 5.0 7.0 0.00 0.00 0.00 33 1013.7
20260902232351 99 210 3.0 4.0 0.00 0.00 0.00 33 1013.7
20260902231850 99 194 4.0 6.0 0.00 0.00 0.00 33 1013.6
20260902231345 100 176 4.0 4.0 0.00 0.00 0.00 32 1013.6
20260902230841 100 271 1.0 2.0 0.00 0.00 0.00 32 1013.4
20260902230340 100 1 1.0 1.0 0.00 0.00 0.00 32 1013.7
20260902225840 99 11 2.0 2.0 0.00 0.00 0.00 33 1013.7
20260902225335 100 98 4.0 7.0 0.00 0.00 0.00 33 1013.8
20260902224833 100 191 4.0 4.0 0.00 0.00 0.00 33 1013.6
20260902224328 100 85 4.0 6.0 0.00 0.00 0.00 32 1013.6
20260902223826 101 96 7.0 9.0 0.00 0.00 0.00 31 1013.7
20260902223326 100 225 2.0 3.0 0.00 0.00 0.00 32 1013.7
20260902222825 101 182 4.0 4.0 0.00 0.00 0.00 32 1014.0
20260902222324 101 117 2.0 3.0 0.00 0.00 0.00 32 1013.9
20260902221818 100 145 5.0 7.0 0.00 0.00 0.00 31 1013.8
20260902221318 100 157 6.0 8.0 0.00 0.00 0.00 32 1014.0
20260902220814 101 88 4.0 6.0 0.00 0.00 0.00 32 1013.9
20260902220313 102 141 5.0 7.0 0.00 0.00 0.00 30 1013.9
20260902215809 102 45 2.0 3.0 0.00 0.00 0.00 30 1013.9
20260902215309 99 7 1.0 1.0 0.00 0.00 0.00 33 1013.9
20260902214805 99 77 4.0 4.0 0.00 0.00 0.00 34 1014.1
20260902214303 100 91 3.0 4.0 0.00 0.00 0.00 33 1014.2
20260902213759 101 65 3.0 3.0 0.00 0.00 0.00 32 1014.1
20260902213254 101 207 7.0 8.0 0.00 0.00 0.00 32 1014.2
20260902212753 100 142 2.0 4.0 0.00 0.00 0.00 32 1014.4
20260902212250 99 153 4.0 4.0 0.00 0.00 0.00 33 1014.6
20260902211746 100 136 3.0 4.0 0.00 0.00 0.00 33 1014.5
20260902211242 101 219 4.0 6.0 0.00 0.00 0.00 32 1014.6
20260902210741 100 185 5.0 6.0 0.00 0.00 0.00 32 1014.6
20260902210236 102 220 5.0 6.0 0.00 0.00 0.00 30 1014.7
20260902205734 101 66 1.0 1.0 0.00 0.00 0.00 31 1014.6
20260902205230 102 158 4.0 7.0 0.00 0.00 0.00 31 1014.8
20260902204725 103 54 3.0 4.0 0.00 0.00 0.00 31 1014.9
20260902204220 103 7 2.0 3.0 0.00 0.00 0.00 31 1014.8
20260902203715 103 326 2.0 3.0 0.00 0.00 0.00 31 1014.8
20260902203215 102 284 2.0 2.0 0.00 0.00 0.00 32 1014.9
20260902202710 101 36 1.0 1.0 0.00 0.00 0.00 32 1014.8
20260902202207 100 155 4.0 4.0 0.00 0.00 0.00 33 1015.1
20260902201703 100 163 4.0 6.0 0.00 0.00 0.00 34 1015.1
20260902201202 100 270 2.0 3.0 0.00 0.00 0.00 34 1015.4
20260902200657 100 156 4.0 6.0 0.00 0.00 0.00 33 1015.3
20260902200153 100 94 4.0 6.0 0.00 0.00 0.00 34 1015.4
20260902195648 101 231 3.0 6.0 0.00 0.00 0.00 33 1015.5
20260902195148 102 192 5.0 7.0 0.00 0.00 0.00 32 1015.4
20260902194646 102 288 4.0 4.0 0.00 0.00 0.00 33 1015.7
20260902194142 100 24 0.0 0.0 0.00 0.00 0.00 33 1015.7
20260902193638 100 39 1.0 1.0 0.00 0.00 0.00 34 1015.6
20260902193138 100 13 3.0 3.0 0.00 0.00 0.00 34 1015.9
20260902192636 101 241 5.0 7.0 0.00 0.00 0.00 34 1015.8
20260902192131 100 111 2.0 3.0 0.00 0.00 0.00 35 1015.9
20260902191626 99 172 5.0 6.0 0.00 0.00 0.00 35 1016.0
20260902191125 98 309 3.0 3.0 0.00 0.00 0.00 37 1015.9
20260902190621 98 183 3.0 6.0 0.00 0.00 0.00 38 1015.9
20260902190116 99 270 2.0 2.0 0.00 0.00 0.00 37 1016.2
20260902185612 99 206 3.0 4.0 0.00 0.00 0.00 37 1016.4
20260902185107 100 206 6.0 9.0 0.00 0.00 0.00 35 1016.4
20260902184602 99 265 2.0 3.0 0.00 0.00 0.00 37 1016.4
20260902184057 99 240 3.0 3.0 0.00 0.00 0.00 37 1016.6
20260902183554 99 318 4.0 6.0 0.00 0.00 0.00 37 1016.7
20260902183050 98 131 4.0 7.0 0.00 0.00 0.00 38 1016.8
20260902182546 99 141 5.0 7.0 0.00 0.00 0.00 37 1017.0
20260902182042 99 210 4.0 6.0 0.00 0.00 0.00 36 1016.9
20260902181538 99 295 3.0 6.0 0.00 0.00 0.00 37 1017.2
20260902181037 98 159 5.0 7.0 0.00 0.00 0.00 38 1017.0
20260902180532 97 213 3.0 3.0 0.00 0.00 0.00 39 1016.8
20260902180028 98 221 6.0 9.0 0.00 0.00 0.00 39 1017.3
20260902175528 98 114 3.0 4.0 0.00 0.00 0.00 38 1017.3
20260902175024 98 258 2.0 2.0 0.00 0.00 0.00 39 1017.4
20260902174520 97 143 4.0 6.0 0.00 0.00 0.00 41 1017.3
20260902174015 97 165 4.0 4.0 0.00 0.00 0.00 40 1017.5
20260902173515 96 256 3.0 3.0 0.00 0.00 0.00 42 1017.6
20260902173010 97 219 5.0 9.0 0.00 0.00 0.00 41 1017.6
20260902172509 97 222 2.0 3.0 0.00 0.00 0.00 41 1017.8
20260902172005 96 150 2.0 3.0 0.00 0.00 0.00 41 1018.0
20260902171500 96 251 7.0 10.0 0.00 0.00 0.00 41 1017.8
20260902170956 96 228 2.0 3.0 0.00 0.00 0.00 42 1018.0
20260902170456 96 233 3.0 3.0 0.00 0.00 0.00 41 1017.9
20260902165952 96 353 2.0 3.0 0.00 0.00 0.00 42 1017.9
20260902165451 95 201 6.0 8.0 0.00 0.00 0.00 43 1018.1
20260902164946 96 197 3.0 6.0 0.00 0.00 0.00 43 1018.1
20260902164441 96 188 1.0 2.0 0.00 0.00 0.00 42 1018.3
20260902163940 94 229 4.0 4.0 0.00 0.00 0.00 45 1018.2
20260902163436 94 333 4.0 4.0 0.00 0.00 0.00 44 1018.2
20260902162933 94 145 4.0 6.0 0.00 0.00 0.00 45 1018.3
20260902162429 94 253 2.0 2.0 0.00 0.00 0.00 45 1018.3
20260902161928 94 0 4.0 6.0 0.00 0.00 0.00 46 1018.6
20260902161424 94 347 2.0 2.0 0.00 0.00 0.00 46 1018.5
20260902160920 93 234 5.0 7.0 0.00 0.00 0.00 46 1018.4
20260902160415 92 279 6.0 8.0 0.00 0.00 0.00 48 1018.4
20260902155913 91 199 3.0 3.0 0.00 0.00 0.00 50 1018.4
20260902155408 92 204 5.0 8.0 0.00 0.00 0.00 49 1018.6
20260902154902 91 288 3.0 4.0 0.00 0.00 0.00 50 1018.6
20260902154358 90 228 2.0 2.0 0.00 0.00 0.00 52 1018.6
20260902153857 90 166 5.0 8.0 0.00 0.00 0.00 52 1018.6
20260902153356 89 318 1.0 2.0 0.00 0.00 0.00 54 1018.4
20260902152852 90 218 5.0 7.0 0.00 0.00 0.00 53 1018.8
20260902152348 89 161 2.0 4.0 0.00 0.00 0.00 53 1018.5
20260902151843 89 161 3.0 3.0 0.00 0.00 0.00 54 1018.6
20260902151338 89 119 3.0 3.0 0.00 0.00 0.00 53 1018.4
20260902150833 89 34 2.0 2.0 0.00 0.00 0.00 54 1018.5
20260902150329 89 240 4.0 4.0 0.00 0.00 0.00 54 1018.5
20260902145828 89 19 1.0 2.0 0.00 0.00 0.00 54 1018.6
20260902145324 89 43 2.0 2.0 0.00 0.00 0.00 53 1018.3
20260902144819 90 266 6.0 9.0 0.00 0.00 0.00 52 1018.2
20260902144316 89 302 3.0 4.0 0.00 0.00 0.00 53 1018.4
20260902143810 89 167 6.0 8.0 0.00 0.00 0.00 53 1018.3
20260902143305 89 255 5.0 7.0 0.00 0.00 0.00 52 1018.4